Time[GMT],salinity[psu](50m),sigma_t[kg/m^3](50m),conductivity[msiemens/cm](50m),temperature[C](50m),pressure[decibars](50m)
2020-11-10 22:00,32.538,24.903,36.361,10.75,48.19
2020-11-10 23:00,32.552,24.916,36.367,10.74,49.76
2020-11-11 00:00,32.537,24.902,36.360,10.75,49.52
2020-11-11 01:00,32.535,24.899,36.367,10.76,49.42
2020-11-11 02:00,32.544,24.907,36.367,10.75,49.26
2020-11-11 03:00,32.555,24.914,36.387,10.76,49.05
2020-11-11 04:00,32.537,24.900,36.369,10.76,49.36
2020-11-11 05:00,32.573,24.931,36.397,10.75,49.46
2020-11-11 06:00,32.555,24.917,36.379,10.75,49.76
2020-11-11 07:00,32.527,24.892,36.359,10.76,49.55
2020-11-11 08:00,32.548,24.910,36.371,10.75,49.35
2020-11-11 09:00,32.572,24.930,36.396,10.75,49.38
2020-11-11 10:00,32.520,24.887,36.352,10.76,48.56
2020-11-11 11:00,32.424,24.804,36.300,10.81,48.60
2020-11-11 12:00,32.517,24.885,36.349,10.76,49.51
2020-11-11 13:00,32.523,24.888,36.364,10.77,49.06
2020-11-11 14:00,32.519,24.885,36.360,10.77,49.44
2020-11-11 15:00,32.524,24.890,36.356,10.76,48.57
2020-11-11 16:00,32.558,24.919,36.382,10.75,49.18
2020-11-11 17:00,32.557,24.918,36.381,10.75,48.70
2020-11-11 18:00,,,,,
2020-11-11 19:00,32.479,24.854,36.320,10.77,49.24
2020-11-11 20:00,,,,,
2020-11-11 21:00,32.508,24.879,36.331,10.75,48.79
2020-11-11 22:00,32.527,24.892,36.359,10.76,48.56
2020-11-11 23:00,32.486,24.857,36.336,10.78,48.86
2020-11-12 00:00,32.472,24.842,36.349,10.81,48.35
2020-11-12 01:00,32.502,24.866,36.370,10.80,49.14
2020-11-12 02:00,32.540,24.899,36.390,10.78,49.53
2020-11-12 03:00,32.499,24.866,36.358,10.79,49.41
2020-11-12 04:00,32.545,24.908,36.368,10.75,49.43
2020-11-12 05:00,32.520,24.890,36.334,10.74,49.22
2020-11-12 06:00,32.508,24.878,36.340,10.76,48.72
2020-11-12 07:00,,,,,
2020-11-12 08:00,,,,,
2020-11-12 09:00,32.449,24.823,36.325,10.81,49.34
2020-11-12 10:00,32.544,24.904,36.385,10.77,49.56
2020-11-12 11:00,32.506,24.869,36.374,10.80,49.50
2020-11-12 12:00,32.481,24.845,36.376,10.83,49.86
2020-11-12 13:00,32.496,24.857,36.391,10.83,49.85
2020-11-12 14:00,32.541,24.895,36.418,10.81,49.51
2020-11-12 15:00,32.536,24.894,36.395,10.79,49.16
2020-11-12 16:00,,,,,
2020-11-12 17:00,32.542,24.904,36.374,10.76,48.49
2020-11-12 18:00,32.524,24.890,36.356,10.76,48.95
2020-11-12 19:00,32.536,24.899,36.368,10.76,49.41
2020-11-12 20:00,32.514,24.881,36.355,10.77,49.38
2020-11-12 21:00,32.481,24.852,36.340,10.79,49.69
2020-11-12 22:00,32.512,24.876,36.371,10.79,49.23
2020-11-12 23:00,32.569,24.918,36.437,10.80,49.28
2020-11-13 00:00,,,,,
2020-11-13 01:00,,,,,
2020-11-13 02:00,,,,,
2020-11-13 03:00,,,,,
2020-11-13 04:00,32.489,24.851,36.384,10.83,47.58
2020-11-13 05:00,32.537,24.893,36.405,10.80,47.06
2020-11-13 06:00,32.543,24.898,36.411,10.80,47.75
2020-11-13 07:00,,,,,
2020-11-13 08:00,,,,,
2020-11-13 09:00,32.435,24.805,36.347,10.85,48.49
2020-11-13 10:00,32.506,24.866,36.392,10.82,49.20
2020-11-13 11:00,32.494,24.857,36.380,10.82,49.27
2020-11-13 12:00,,,,,
2020-11-13 13:00,32.512,24.872,36.389,10.81,49.07
2020-11-13 14:00,32.534,24.891,36.402,10.80,49.31
2020-11-13 15:00,32.463,24.843,36.295,10.76,49.28
2020-11-13 16:00,32.497,24.864,36.356,10.79,48.75
2020-11-13 17:00,32.432,24.811,36.299,10.80,47.66
2020-11-13 18:00,32.429,24.812,36.288,10.79,46.77
2020-11-13 19:00,32.482,24.853,36.341,10.79,47.06
2020-11-13 20:00,32.426,24.811,36.276,10.78,47.25
2020-11-13 21:00,,,,,
2020-11-13 22:00,32.435,24.814,36.302,10.80,49.06
2020-11-13 23:00,32.466,24.839,36.334,10.80,48.98
2020-11-14 01:00,,,,,
2020-11-14 02:00,,,,,
2020-11-14 03:00,,,,,
2020-11-14 04:00,32.507,24.879,36.330,10.75,47.42
2020-11-14 05:00,32.449,24.834,36.272,10.75,47.11
2020-11-14 06:00,32.478,24.855,36.310,10.76,46.37
2020-11-14 07:00,32.499,24.869,36.340,10.77,47.21
2020-11-14 08:00,32.497,24.868,36.338,10.77,49.11
2020-11-14 09:00,32.414,24.798,36.281,10.80,49.39
2020-11-14 10:00,32.426,24.809,36.285,10.79,49.46
2020-11-14 11:00,32.497,24.871,36.320,10.75,49.19
2020-11-14 12:00,32.475,24.856,36.289,10.74,49.34
2020-11-14 13:00,32.472,24.861,36.251,10.70,49.43
2020-11-14 14:00,32.491,24.877,36.261,10.69,49.32
2020-11-14 15:00,,,,,
2020-11-14 16:00,32.495,24.887,36.229,10.65,47.93
2020-11-14 17:00,,,,,
2020-11-14 18:00,32.481,24.868,36.260,10.70,46.41
2020-11-14 19:00,32.494,24.872,36.299,10.73,46.56
2020-11-14 20:00,32.503,24.881,36.299,10.72,47.47
2020-11-14 21:00,,,,,
2020-11-14 22:00,,,,,
2020-11-14 23:00,,,,,
2020-11-15 00:00,,,,,
2020-11-15 01:00,32.462,24.852,36.240,10.70,49.56
2020-11-15 02:00,32.489,24.884,36.214,10.64,49.27
2020-11-15 03:00,32.466,24.873,36.155,10.60,49.39
2020-11-15 04:00,,,,,
2020-11-15 05:00,,,,,
2020-11-15 06:00,,,,,
2020-11-15 07:00,,,,,
2020-11-15 08:00,32.458,24.858,36.192,10.65,48.61
2020-11-15 09:00,32.435,24.839,36.178,10.66,49.08
2020-11-15 10:00,32.430,24.835,36.173,10.66,49.47
2020-11-15 11:00,32.492,24.878,36.262,10.69,49.66
2020-11-15 12:00,32.567,24.946,36.283,10.63,49.78
2020-11-15 13:00,32.466,24.869,36.173,10.62,49.76
2020-11-15 14:00,32.444,24.868,36.071,10.53,49.59
2020-11-15 15:00,32.454,24.880,36.054,10.50,49.33
2020-11-15 16:00,32.437,24.873,36.011,10.47,49.21
2020-11-15 17:00,32.467,24.894,36.049,10.48,48.64
2020-11-15 18:00,32.471,24.894,36.071,10.50,48.16
2020-11-15 19:00,32.480,24.893,36.125,10.55,48.58
2020-11-15 20:00,32.494,24.903,36.139,10.55,48.76
2020-11-15 21:00,32.462,24.870,36.151,10.60,49.37
2020-11-15 22:00,32.477,24.875,36.202,10.64,49.32
2020-11-15 23:00,32.432,24.848,36.112,10.59,48.56
2020-11-16 00:00,32.431,24.847,36.111,10.59,47.70
2020-11-16 01:00,32.491,24.898,36.154,10.57,46.85
2020-11-16 02:00,32.466,24.888,36.075,10.51,47.22
2020-11-16 03:00,32.463,24.896,36.019,10.45,47.54
2020-11-16 04:00,32.442,24.880,35.998,10.45,47.52
2020-11-16 05:00,32.446,24.883,36.002,10.45,47.60
2020-11-16 06:00,32.438,24.877,35.994,10.45,47.25
2020-11-16 07:00,,,,,
2020-11-16 08:00,32.495,24.890,36.211,10.63,47.79
2020-11-16 09:00,32.470,24.871,36.186,10.63,48.51
2020-11-16 10:00,,,,,
2020-11-16 11:00,32.297,24.740,35.995,10.61,49.48
2020-11-16 12:00,,,,,
2020-11-16 13:00,32.355,24.797,35.991,10.54,48.44
2020-11-16 14:00,,,,,
2020-11-16 15:00,32.364,24.814,35.947,10.48,47.85
2020-11-16 16:00,,,,,
2020-11-16 17:00,32.374,24.825,35.939,10.46,48.90
2020-11-16 18:00,32.441,24.876,36.015,10.47,48.52
2020-11-16 19:00,32.454,24.879,36.063,10.51,47.83
2020-11-16 20:00,,,,,
2020-11-16 21:00,32.439,24.862,36.075,10.54,48.03
2020-11-16 22:00,,,,,
2020-11-16 23:00,32.444,24.861,36.107,10.57,48.93
2020-11-17 00:00,32.429,24.856,36.056,10.53,49.01
2020-11-17 01:00,,,,,
2020-11-17 02:00,32.440,24.870,36.040,10.50,49.09
2020-11-17 03:00,32.355,24.807,35.938,10.48,49.37
2020-11-17 04:00,32.404,24.849,35.969,10.46,49.05
2020-11-17 06:00,32.418,24.860,35.983,10.46,48.84
2020-11-17 07:00,,,,,
2020-11-17 08:00,32.403,24.845,35.986,10.48,48.87
2020-11-17 10:00,32.443,24.865,36.079,10.54,49.19
2020-11-17 11:00,32.399,24.833,36.026,10.53,48.92
2020-11-17 12:00,32.368,24.810,35.986,10.52,49.42
2020-11-17 13:00,32.380,24.824,35.971,10.49,49.66
2020-11-17 14:00,32.486,24.907,36.077,10.49,49.19
2020-11-17 15:00,32.410,24.855,35.966,10.45,49.03
2020-11-17 16:00,32.435,24.881,35.955,10.41,49.43
2020-11-17 17:00,,,,,
2020-11-17 18:00,,,,,
2020-11-17 19:00,32.394,24.858,35.870,10.36,48.94
2020-11-17 20:00,32.418,24.866,35.947,10.42,48.42
2020-11-17 21:00,32.394,24.844,35.941,10.44,48.35
2020-11-17 22:00,32.411,24.853,35.985,10.47,48.51
2020-11-17 23:00,,,,,
2020-11-18 00:00,,,,,
2020-11-18 01:00,32.428,24.871,35.975,10.44,49.31
2020-11-18 02:00,32.368,24.829,35.888,10.41,49.64
2020-11-18 03:00,,,,,
2020-11-18 05:00,32.423,24.884,35.881,10.34,49.66
2020-11-18 06:00,32.455,24.910,35.904,10.33,48.95
2020-11-18 07:00,,,,,
2020-11-18 08:00,,,,,
2020-11-18 09:00,,,,,
2020-11-18 10:00,32.392,24.855,35.877,10.37,47.37
2020-11-18 11:00,,,,,
2020-11-18 12:00,32.358,24.826,35.852,10.38,48.60
2020-11-18 13:00,,,,,
2020-11-18 14:00,,,,,
2020-11-18 15:00,32.457,24.921,35.862,10.28,50.02
2020-11-18 16:00,,,,,
2020-11-18 17:00,32.396,24.886,35.730,10.20,48.73
2020-11-18 18:00,32.460,24.943,35.758,10.16,48.61
2020-11-18 19:00,,,,,
2020-11-18 20:00,32.404,24.897,35.711,10.17,47.52
2020-11-18 21:00,,,,,
2020-11-18 22:00,32.423,24.909,35.748,10.19,47.39
2020-11-18 23:00,32.429,24.912,35.763,10.20,47.80
2020-11-19 00:00,,,,,
2020-11-19 01:00,32.319,24.816,35.707,10.26,49.46
2020-11-19 02:00,,,,,
2020-11-19 03:00,32.364,24.863,35.689,10.19,49.58
2020-11-19 04:00,,,,,
2020-11-19 05:00,32.458,24.948,35.721,10.12,49.21
2020-11-19 06:00,,,,,
2020-11-19 07:00,32.440,24.951,35.614,10.02,49.66
2020-11-19 08:00,,,,,
2020-11-19 09:00,,,,,
2020-11-19 10:00,32.431,24.940,35.623,10.04,48.76
2020-11-19 11:00,,,,,
2020-11-19 12:00,32.445,24.950,35.646,10.05,49.42
2020-11-19 13:00,32.383,24.893,35.629,10.10,49.69
2020-11-19 14:00,32.375,24.888,35.612,10.09,49.92
2020-11-19 15:00,32.432,24.941,35.624,10.04,49.66
2020-11-19 16:00,32.401,24.921,35.576,10.02,49.36
2020-11-19 17:00,32.436,24.953,35.584,9.99,48.56
2020-11-19 18:00,32.462,24.997,35.476,9.84,48.80
2020-11-19 19:00,,,,,
2020-11-19 20:00,32.461,25.006,35.422,9.78,49.03
2020-11-19 21:00,32.463,24.993,35.504,9.87,49.04
2020-11-19 22:00,32.448,24.968,35.560,9.95,48.55
2020-11-19 23:00,32.492,24.993,35.657,10.01,47.91
2020-11-20 00:00,32.500,25.003,35.647,9.99,48.05
2020-11-20 01:00,,,,,
2020-11-20 02:00,,,,,
2020-11-20 03:00,,,,,
2020-11-20 04:00,32.381,24.915,35.503,9.96,47.67
2020-11-20 05:00,32.379,24.919,35.465,9.92,48.10
2020-11-20 06:00,32.318,24.873,35.396,9.91,48.04
2020-11-20 07:00,,,,,
2020-11-20 08:00,32.435,24.970,35.485,9.88,49.32
2020-11-20 09:00,32.442,24.974,35.501,9.89,49.29
2020-11-20 10:00,,,,,
2020-11-20 11:00,32.473,24.994,35.549,9.91,48.91
2020-11-20 12:00,,,,,
2020-11-20 13:00,32.463,24.980,35.575,9.95,48.83
2020-11-20 14:00,32.467,24.985,35.570,9.94,48.68
2020-11-20 15:00,32.444,24.967,35.547,9.94,49.48
2020-11-20 16:00,32.438,24.966,35.524,9.92,49.41
2020-11-20 17:00,32.391,24.939,35.424,9.86,49.42
2020-11-20 18:00,32.472,25.007,35.477,9.83,49.25
2020-11-20 19:00,32.450,24.986,35.473,9.85,49.19
2020-11-20 20:00,32.432,24.973,35.456,9.85,49.23
2020-11-20 21:00,32.470,25.007,35.467,9.82,49.69
2020-11-20 22:00,32.471,25.016,35.423,9.77,49.60
2020-11-20 23:00,32.483,25.009,35.524,9.87,49.29
2020-11-21 00:00,32.489,25.017,35.512,9.85,49.39
2020-11-21 01:00,32.507,25.033,35.521,9.84,49.43
2020-11-21 02:00,32.484,25.010,35.525,9.87,49.42
2020-11-21 03:00,32.457,24.989,35.498,9.87,49.34
2020-11-21 04:00,,,,,
2020-11-21 05:00,32.468,25.007,35.456,9.81,49.65
2020-11-21 06:00,,,,,
2020-11-21 07:00,32.492,25.045,35.373,9.69,49.85
2020-11-21 08:00,32.456,25.009,35.382,9.74,49.87
2020-11-21 09:00,32.499,25.048,35.398,9.71,49.29
2020-11-21 10:00,32.480,25.030,35.397,9.73,49.56
2020-11-21 11:00,32.426,24.979,35.388,9.78,49.59
2020-11-21 12:00,32.466,25.017,35.392,9.74,49.51
2020-11-21 13:00,32.502,25.045,35.427,9.74,49.40
2020-11-21 14:00,32.461,25.003,35.440,9.80,49.54
2020-11-21 15:00,32.463,25.005,35.442,9.80,48.80
2020-11-21 16:00,32.426,24.969,35.441,9.84,49.03
2020-11-21 17:00,32.472,25.018,35.415,9.76,49.69
2020-11-21 18:00,32.492,25.044,35.382,9.70,49.44
2020-11-21 19:00,32.356,24.926,35.310,9.77,49.59
2020-11-21 20:00,32.417,24.977,35.353,9.75,49.33
2020-11-21 21:00,32.491,25.046,35.363,9.68,49.34
2020-11-21 22:00,32.512,25.067,35.357,9.65,48.60
2020-11-21 23:00,32.467,25.022,35.366,9.71,48.19
2020-11-22 00:00,,,,,
2020-11-22 01:00,,,,,
2020-11-22 02:00,32.462,25.015,35.379,9.73,48.45
2020-11-22 03:00,,,,,
2020-11-22 04:00,,,,,
2020-11-22 05:00,,,,,
2020-11-22 06:00,32.408,24.979,35.300,9.70,49.56
2020-11-22 07:00,32.374,24.951,35.266,9.70,49.66
2020-11-22 08:00,32.351,24.944,35.191,9.64,49.52
2020-11-22 09:00,32.438,25.006,35.302,9.67,49.22
2020-11-22 10:00,32.367,24.961,35.180,9.61,49.30
2020-11-22 11:00,32.428,25.003,35.266,9.64,49.16
2020-11-22 12:00,32.492,25.054,35.329,9.64,48.68
2020-11-22 13:00,32.506,25.068,35.325,9.62,48.45
2020-11-22 14:00,32.459,25.026,35.305,9.65,49.28
2020-11-22 15:00,,,,,
2020-11-22 16:00,32.476,25.041,35.313,9.64,49.57
2020-11-22 17:00,32.501,25.064,35.320,9.62,49.69
2020-11-22 18:00,32.438,25.010,35.285,9.65,49.86
2020-11-22 19:00,32.352,24.943,35.201,9.65,49.92
2020-11-22 20:00,32.420,25.005,35.214,9.59,49.68
2020-11-22 21:00,32.447,25.024,35.249,9.60,49.65
2020-11-22 22:00,32.419,25.001,35.231,9.61,49.80
2020-11-22 23:00,32.455,25.036,35.231,9.57,49.52
2020-11-23 00:00,32.449,25.030,35.234,9.58,49.25
2020-11-23 01:00,32.471,25.052,35.229,9.55,49.11
2020-11-23 02:00,32.473,25.048,35.257,9.58,48.97
2020-11-23 03:00,32.474,25.049,35.258,9.58,49.44
2020-11-23 04:00,32.472,25.047,35.256,9.58,49.26
2020-11-23 05:00,32.435,25.014,35.247,9.61,49.02
2020-11-23 06:00,32.378,24.963,35.226,9.65,49.39
2020-11-23 07:00,32.370,24.955,35.227,9.66,48.54
2020-11-23 08:00,32.271,24.879,35.121,9.65,49.29
2020-11-23 09:00,32.388,24.985,35.156,9.56,48.65
2020-11-23 10:00,32.475,25.057,35.224,9.54,49.67
2020-11-23 11:00,32.434,25.030,35.148,9.50,48.32
2020-11-23 12:00,32.427,25.026,35.142,9.50,48.19
2020-11-23 13:00,32.459,25.050,35.173,9.50,48.58
2020-11-23 14:00,32.508,25.082,35.256,9.54,48.33
2020-11-23 15:00,32.533,25.100,35.289,9.55,48.10
2020-11-23 16:00,32.487,25.058,35.280,9.59,48.56
2020-11-23 17:00,32.481,25.053,35.274,9.59,48.95
2020-11-23 18:00,32.489,25.061,35.273,9.58,49.51
2020-11-23 19:00,32.449,25.026,35.251,9.60,49.73
2020-11-23 20:00,32.415,25.006,35.183,9.56,49.63
2020-11-23 21:00,32.468,25.054,35.199,9.52,49.25
2020-11-23 22:00,,,,,
2020-11-23 23:00,,,,,
2020-11-24 00:00,32.561,25.115,35.352,9.59,48.18
2020-11-24 01:00,32.511,25.075,35.312,9.60,46.91
2020-11-24 02:00,,,,,
2020-11-24 03:00,,,,,
2020-11-24 04:00,,,,,
2020-11-24 05:00,,,,,
2020-11-24 06:00,32.527,25.095,35.283,9.55,49.02
2020-11-24 07:00,32.545,25.108,35.310,9.56,48.63
2020-11-24 08:00,32.571,25.128,35.335,9.56,49.34
2020-11-24 09:00,32.337,24.949,35.089,9.54,48.85
2020-11-24 10:00,32.398,24.994,35.157,9.55,47.85
2020-11-24 11:00,32.445,25.038,35.168,9.51,47.97
2020-11-24 12:00,32.455,25.049,35.160,9.49,47.72
2020-11-24 13:00,32.508,25.085,35.238,9.52,47.94
2020-11-24 14:00,32.481,25.069,35.185,9.49,47.47
2020-11-24 15:00,,,,,
2020-11-24 16:00,,,,,
2020-11-24 17:00,32.523,25.100,35.235,9.50,47.66
2020-11-24 18:00,32.474,25.059,35.205,9.52,47.84
2020-11-24 19:00,,,,,
2020-11-24 20:00,32.463,25.055,35.168,9.49,48.80
2020-11-24 21:00,,,,,
2020-11-24 22:00,,,,,
2020-11-24 23:00,,,,,
2020-11-25 00:00,,,,,
2020-11-25 01:00,,,,,
2020-11-25 02:00,32.389,25.021,34.964,9.34,47.96
2020-11-25 03:00,,,,,
2020-11-25 04:00,,,,,
2020-11-25 05:00,,,,,
2020-11-25 06:00,,,,,
2020-11-25 07:00,32.367,24.997,34.977,9.38,49.56
2020-11-25 08:00,32.436,25.048,35.062,9.40,49.77
2020-11-25 09:00,32.306,24.958,34.874,9.33,49.82
2020-11-25 10:00,32.343,24.994,34.866,9.28,49.76
2020-11-25 11:00,32.282,24.972,34.667,9.12,49.81
2020-11-25 12:00,32.351,25.017,34.786,9.18,49.61
2020-11-25 13:00,32.438,25.064,34.985,9.31,49.27
2020-11-25 14:00,32.441,25.070,34.970,9.29,49.10
2020-11-25 15:00,32.437,25.081,34.887,9.20,48.78
2020-11-25 16:00,32.458,25.083,34.987,9.29,49.65
2020-11-25 17:00,32.448,25.077,34.968,9.28,49.63
2020-11-25 18:00,32.448,25.077,34.968,9.28,48.99
2020-11-25 19:00,,,,,
2020-11-25 20:00,32.346,25.011,34.790,9.19,49.12
2020-11-25 21:00,,,,,
2020-11-25 22:00,32.447,25.087,34.906,9.21,49.42
2020-11-25 23:00,32.367,25.023,34.837,9.22,49.15
2020-11-26 00:00,32.459,25.096,34.917,9.21,49.56
2020-11-26 01:00,32.460,25.104,34.883,9.17,49.13
2020-11-26 02:00,32.447,25.109,34.782,9.07,49.51
2020-11-26 03:00,32.528,25.152,34.975,9.20,49.38
2020-11-26 04:00,32.495,25.115,35.005,9.27,49.13
2020-11-26 05:00,32.517,25.129,35.044,9.29,48.89
2020-11-26 06:00,32.511,25.124,35.038,9.29,49.33
2020-11-26 07:00,32.509,25.124,35.027,9.28,49.35
2020-11-26 08:00,32.499,25.109,35.062,9.33,49.96
2020-11-26 09:00,32.435,25.068,34.947,9.27,49.68
2020-11-26 10:00,32.422,25.071,34.864,9.19,49.46
2020-11-26 11:00,32.411,25.057,34.879,9.22,49.68
2020-11-26 12:00,32.444,25.086,34.894,9.20,49.75
2020-11-26 13:00,32.414,25.071,34.821,9.15,49.69
2020-11-26 14:00,32.400,25.067,34.763,9.10,49.73
2020-11-26 15:00,32.395,25.065,34.750,9.09,49.38
2020-11-26 16:00,32.484,25.121,34.915,9.18,49.58
2020-11-26 17:00,,,,,
2020-11-26 18:00,32.501,25.129,34.958,9.21,49.32
2020-11-26 19:00,32.482,25.122,34.895,9.16,49.53
2020-11-26 20:00,32.434,25.091,34.814,9.12,49.28
2020-11-26 21:00,32.460,25.096,34.927,9.22,48.46
2020-11-26 22:00,32.492,25.125,34.931,9.19,48.86
2020-11-26 23:00,32.459,25.100,34.900,9.19,48.16
2020-11-27 00:00,32.514,25.135,34.997,9.24,49.46
2020-11-27 01:00,32.524,25.144,34.998,9.23,49.66
2020-11-27 02:00,32.438,25.097,34.800,9.10,49.58
2020-11-27 03:00,32.426,25.087,34.788,9.10,49.58
2020-11-27 04:00,32.446,25.100,34.825,9.12,49.25
2020-11-27 05:00,32.499,25.132,34.929,9.18,48.72
2020-11-27 06:00,32.490,25.121,34.947,9.21,49.47
2020-11-27 07:00,32.498,25.126,34.964,9.22,49.38
2020-11-27 08:00,32.466,25.114,34.853,9.13,49.31
2020-11-27 09:00,32.432,25.083,34.847,9.16,49.70
2020-11-27 10:00,32.472,25.111,34.903,9.18,49.55
2020-11-27 11:00,32.467,25.106,34.907,9.19,49.73
2020-11-27 12:00,32.479,25.114,34.928,9.20,49.49
2020-11-27 13:00,32.512,25.132,35.004,9.25,49.85
2020-11-27 14:00,32.504,25.125,34.996,9.25,49.53
2020-11-27 15:00,32.488,25.115,34.972,9.24,49.47
2020-11-27 16:00,32.463,25.100,34.921,9.21,49.60
2020-11-27 17:00,32.481,25.115,34.930,9.20,49.24
2020-11-27 18:00,32.493,25.123,34.950,9.21,49.13
2020-11-27 19:00,32.486,25.116,34.952,9.22,49.56
2020-11-27 20:00,32.477,25.112,34.926,9.20,49.56
2020-11-27 21:00,32.498,25.127,34.955,9.21,49.82
2020-11-27 22:00,32.440,25.088,34.864,9.17,49.43
2020-11-27 23:00,32.457,25.096,34.906,9.20,49.82
2020-11-28 00:00,32.492,25.118,34.976,9.24,49.52
2020-11-28 01:00,32.378,25.033,34.839,9.21,49.45
2020-11-28 02:00,32.454,25.088,34.939,9.24,49.49
2020-11-28 03:00,32.423,25.069,34.873,9.20,48.89
2020-11-28 04:00,32.424,25.077,34.839,9.16,48.80
2020-11-28 05:00,32.430,25.083,34.836,9.15,48.50
2020-11-28 06:00,32.464,25.095,34.948,9.24,48.34
2020-11-28 07:00,32.460,25.094,34.936,9.23,47.54
2020-11-28 08:00,32.469,25.103,34.936,9.22,48.42
2020-11-28 09:00,32.447,25.092,34.879,9.18,48.92
2020-11-28 10:00,32.481,25.113,34.938,9.21,49.34
2020-11-28 11:00,32.472,25.102,34.956,9.24,49.63
2020-11-28 12:00,32.437,25.076,34.913,9.23,49.36
2020-11-28 13:00,32.406,25.059,34.839,9.18,49.62
2020-11-28 14:00,32.427,25.076,34.860,9.18,49.46
2020-11-28 15:00,32.440,25.082,34.899,9.21,48.78
2020-11-28 16:00,32.445,25.087,34.895,9.20,48.49
2020-11-28 17:00,32.436,25.083,34.868,9.18,48.09
2020-11-28 18:00,32.485,25.115,34.951,9.22,47.27
2020-11-28 19:00,32.486,25.113,34.970,9.24,48.26
2020-11-28 20:00,32.464,25.099,34.931,9.22,48.53
2020-11-28 21:00,32.460,25.097,34.918,9.21,49.30
2020-11-28 22:00,32.513,25.131,35.014,9.26,49.50
2020-11-28 23:00,32.454,25.096,34.895,9.19,49.71
2020-11-29 00:00,32.504,25.128,34.978,9.23,49.63
2020-11-29 01:00,32.348,25.020,34.748,9.14,49.45
2020-11-29 02:00,32.422,25.074,34.846,9.17,49.37
2020-11-29 03:00,32.447,25.093,34.870,9.17,48.78
2020-11-29 04:00,32.466,25.108,34.889,9.17,48.59
2020-11-29 05:00,,,,,
2020-11-29 06:00,32.538,25.155,35.011,9.23,47.35
2020-11-29 07:00,32.518,25.139,34.992,9.23,47.72
2020-11-29 08:00,32.498,25.130,34.937,9.19,48.45
2020-11-29 09:00,32.495,25.126,34.943,9.20,48.96
2020-11-29 10:00,32.520,25.144,34.976,9.21,48.74
2020-11-29 11:00,32.551,25.167,35.015,9.22,49.10
2020-11-29 12:00,32.453,25.099,34.867,9.16,49.65
2020-11-29 13:00,32.383,25.053,34.756,9.11,49.60
2020-11-29 14:00,32.550,25.162,35.041,9.25,49.62
2020-11-29 15:00,32.510,25.133,34.984,9.23,48.84
2020-11-29 16:00,32.529,25.142,35.038,9.27,48.95
2020-11-29 17:00,32.493,25.131,34.906,9.16,48.78
2020-11-29 18:00,32.514,25.139,34.970,9.21,48.42
2020-11-29 19:00,32.536,25.155,35.001,9.22,48.81
2020-11-29 20:00,32.545,25.162,35.009,9.22,48.87
2020-11-29 21:00,32.530,25.152,34.986,9.21,49.53
2020-11-29 22:00,32.490,25.127,34.912,9.17,49.67
2020-11-29 23:00,32.514,25.136,34.988,9.23,49.22
2020-11-30 00:00,32.491,25.128,34.913,9.17,49.47
2020-11-30 01:00,32.591,25.182,35.142,9.32,49.45
2020-11-30 02:00,32.550,25.158,35.058,9.27,49.63
2020-11-30 03:00,32.524,25.141,35.015,9.25,49.71
2020-11-30 04:00,32.496,25.127,34.944,9.20,49.63
2020-11-30 05:00,32.494,25.124,34.951,9.21,49.68
2020-11-30 06:00,32.505,25.137,34.935,9.18,49.40
2020-11-30 07:00,32.526,25.149,34.982,9.21,49.26
2020-11-30 08:00,32.550,25.164,35.023,9.23,49.62
2020-11-30 09:00,32.510,25.140,34.949,9.19,49.49
2020-11-30 10:00,32.453,25.099,34.867,9.16,49.47
2020-11-30 11:00,32.473,25.113,34.895,9.17,49.38
2020-11-30 12:00,,,,,
2020-11-30 13:00,32.472,25.105,34.939,9.22,49.01
2020-11-30 14:00,32.471,25.107,34.920,9.20,49.18
2020-11-30 15:00,32.461,25.095,34.937,9.23,49.22
2020-11-30 16:00,32.474,25.105,34.949,9.23,49.68
2020-11-30 17:00,32.537,25.146,35.054,9.28,49.68
2020-11-30 18:00,32.557,25.159,35.092,9.30,49.47
2020-11-30 19:00,32.552,25.163,35.043,9.25,49.40
2020-11-30 20:00,32.510,25.137,34.967,9.21,48.41
2020-11-30 21:00,32.551,25.162,35.042,9.25,47.90
2020-11-30 22:00,32.547,25.159,35.038,9.25,46.40
2020-11-30 23:00,32.463,25.106,34.886,9.17,47.18
2020-12-01 00:00,32.462,25.102,34.902,9.19,46.50
2020-12-01 01:00,32.406,25.064,34.813,9.15,46.87
2020-12-01 02:00,32.426,25.080,34.832,9.15,45.56
2020-12-01 03:00,32.277,24.970,34.653,9.11,45.78
2020-12-01 04:00,32.406,25.063,34.822,9.16,47.90
2020-12-01 05:00,32.456,25.098,34.897,9.19,46.28
2020-12-01 06:00,32.507,25.131,34.981,9.23,48.49
2020-12-01 07:00,32.502,25.129,34.968,9.22,47.94
2020-12-01 08:00,32.391,25.049,34.816,9.17,46.02
2020-12-01 09:00,32.222,24.925,34.609,9.12,48.54
2020-12-01 10:00,32.410,25.058,34.870,9.21,48.20
2020-12-01 11:00,32.204,24.908,34.609,9.14,47.62
2020-12-01 12:00,32.185,24.896,34.573,9.12,48.14
2020-12-01 13:00,32.203,24.910,34.590,9.12,47.82
2020-12-01 14:00,32.205,24.909,34.610,9.14,47.25
2020-12-01 15:00,32.382,25.039,34.825,9.19,47.91
2020-12-01 16:00,32.369,25.029,34.812,9.19,46.22
2020-12-01 17:00,32.373,25.029,34.834,9.21,47.32
2020-12-01 18:00,32.462,25.096,34.938,9.23,49.49
2020-12-01 19:00,32.412,25.061,34.863,9.20,48.59
2020-12-01 20:00,32.435,25.076,34.903,9.22,47.63
2020-12-01 21:00,32.446,25.088,34.896,9.20,49.92
2020-12-01 22:00,32.393,25.050,34.827,9.18,48.18
2020-12-01 23:00,32.350,25.017,34.776,9.17,49.52
2020-12-02 00:00,32.382,25.039,34.825,9.19,47.44
2020-12-02 01:00,32.319,24.995,34.738,9.16,47.24
2020-12-02 02:00,,,,,
2020-12-02 03:00,32.399,25.049,34.859,9.21,49.33
2020-12-02 04:00,32.362,25.022,34.814,9.20,48.50
2020-12-02 05:00,32.382,25.037,34.843,9.21,48.68
2020-12-02 06:00,32.347,25.012,34.791,9.19,48.80
2020-12-02 07:00,32.314,24.987,34.750,9.18,48.10
2020-12-02 08:00,,,,,
2020-12-02 09:00,32.421,25.065,34.889,9.22,48.58
2020-12-02 10:00,,,,,
2020-12-02 11:00,32.236,24.930,34.657,9.16,48.42
2020-12-02 12:00,32.279,24.964,34.699,9.16,48.37
2020-12-02 13:00,32.192,24.898,34.597,9.14,48.33
2020-12-02 14:00,32.247,24.937,34.677,9.17,47.14
2020-12-02 15:00,32.229,24.926,34.642,9.15,47.41
2020-12-02 16:00,32.308,24.981,34.753,9.19,48.56
2020-12-02 17:00,32.311,24.985,34.747,9.18,49.03
2020-12-02 18:00,32.372,25.028,34.833,9.21,49.04
2020-12-02 19:00,32.377,25.033,34.838,9.21,49.27
2020-12-02 20:00,32.365,25.023,34.826,9.21,48.92
2020-12-02 21:00,32.415,25.059,34.892,9.23,48.38
2020-12-02 22:00,,,,,
2020-12-02 23:00,32.310,24.984,34.746,9.18,48.61
2020-12-03 00:00,32.296,24.974,34.733,9.18,49.35